[[{"header":{"parameterUnit":"m.s-1","parameterCategory":1,"la1":30.2991,"la2":30.254,"lo1":-89.0895,"lo2":-89.0444,"dy":0.0017,"dx":0.0017,"nx":28,"ny":28,"refTime":"2023-03-20T15:00:00:Z","depth":0,"parameterNumber":2,"parameterNumberName":"U-component_of_WINDS"},"data":[0,0,0,0,0,0,0,0,0,0,0,0,0,0,0,0,0,0,0,0,0,0,0,0,0,0,0,0,0,0,0,0,0,0,0,0,0,0,0,0,0,0,0,0,0,0,0,0,0,0,0,0,0,0,0,0,0,0,-4.4614,-4.4616,0,-4.4731,-4.4732,-4.4733,-4.4681,-4.4678,-4.4675,-4.4672,-4.4789,-4.4794,-4.48,0,0,0,0,0,0,0,0,0,0,0,0,0,-4.4343,-4.4349,-4.4614,-4.4616,-4.4617,-4.4731,-4.4732,-4.4734,-4.4681,-4.4678,-4.4674,-4.4671,-4.4787,-4.4794,-4.4801,0,0,0,0,0,0,0,0,0,0,0,0,0,-4.446,-4.435,-4.4614,-4.4605,-4.4605,-4.473,-4.4732,-4.4734,-4.4682,-4.4678,-4.4673,-4.4669,-4.4785,-4.4793,-4.4802,-4.4942,0,0,-4.4828,-4.4832,0,0,0,0,0,0,0,0,-4.4454,-4.447,-4.4605,-4.4606,-4.4606,-4.4687,-4.4679,-4.4804,-4.4683,-4.4653,-4.4672,-4.4667,-4.4758,-4.4769,-4.48,-4.4947,-4.4952,-4.4829,-4.4834,-4.4838,-4.484,0,0,0,0,0,0,0,-4.4446,-4.4465,-4.466,-4.4607,-4.4608,-4.4594,-4.4606,-4.4703,-4.4728,-4.4655,-4.4652,-4.4666,-4.4758,-4.4792,-4.4802,-4.4954,-4.4829,-4.4836,-4.4842,-4.4845,-4.5219,-4.5224,0,0,0,0,0,0,-4.4438,-4.4459,-4.4657,-4.4664,-4.4518,-4.4602,-4.4615,-4.4665,-4.4727,-4.4732,-4.467,-4.4663,-4.4779,-4.4792,-4.4806,-4.4972,-4.4838,-4.4846,-4.4851,-4.5215,-4.522,-4.5225,0,0,0,0,0,0,-4.4433,-4.4456,-4.4652,-4.456,-4.4584,-4.4611,-4.4668,-4.467,-4.4704,-4.4738,-4.4742,-4.47,-4.4776,-4.4794,-4.4908,-4.4975,-4.485,-4.4858,-4.5209,-4.5216,-4.5223,-4.5306,0,0,0,0,0,0,-4.4425,-4.4455,-4.4509,-4.4562,-4.4589,-4.4753,-4.4672,-4.4675,-4.4719,-4.4712,-4.4768,-4.4773,-4.4774,-4.4895,-4.4917,-4.4985,-4.4865,-4.5203,-4.5212,-4.5221,-4.5297,-4.5315,-4.533,0,0,0,0,0,-4.4416,-4.4528,-4.4512,-4.4536,-4.4658,-4.4757,-4.4772,-4.4773,-4.4725,-4.4779,-4.4801,-4.4771,-4.4965,-4.4908,-4.4931,-4.5003,-4.5199,-4.521,-4.522,-4.529,-4.5312,-4.533,0,0,0,0,0,0,-4.4481,-4.4535,-4.4518,-4.4651,-4.47,-4.4748,-4.4816,-4.4796,-4.4859,-4.4849,-4.4846,-4.4859,-4.4977,-4.5002,-4.4936,-4.5141,-4.5074,-4.509,-4.512,-4.514,-4.5157,-4.5147,-4.4872,0,0,0,0,0,-4.4512,-4.4589,-4.4631,-4.4744,-4.4769,-4.4789,-4.4832,-4.4828,-4.4878,-4.4898,-4.4929,-4.4978,-4.5049,-4.5097,-4.5165,-4.5302,-4.5311,-4.5363,-4.5379,-4.5393,-4.5405,-4.5477,-4.5499,-4.526,-4.526,-4.526,0,0,-4.4574,-4.4613,-4.4661,-4.4758,-4.4795,-4.4873,-4.4806,-4.4893,-4.495,-4.4911,-4.502,-4.5044,-4.5099,-4.5224,-4.5281,-4.5248,-4.5474,-4.5406,-4.5416,-4.5422,-4.549,-4.5512,-4.5532,-4.5268,-4.5266,-4.5265,0,0,-4.4727,-4.4766,-4.4863,-4.4902,-4.496,-4.4972,-4.4995,-4.5047,-4.5061,-4.5171,-4.5143,-4.5211,-4.5336,-4.5375,-4.5411,-4.5579,-4.5553,-4.5602,-4.5687,-4.5756,-4.5775,-4.5791,-4.5848,-4.5869,-4.5615,-4.5615,-4.5616,0,-4.4797,-4.4915,-4.4915,-4.5003,-4.5045,-4.5015,-4.5112,-4.515,-4.5227,-4.5256,-4.5219,-4.5374,-4.5409,-4.5541,-4.5582,-4.5614,-4.5639,-4.5594,-4.5773,-4.5789,-4.5805,-4.5859,-4.5881,-4.5621,-4.562,-4.5619,-4.5619,0,-4.4997,-4.5079,-4.515,-4.5225,-4.5276,-4.5368,-4.5381,-4.5432,-4.5424,-4.544,-4.555,-4.5591,-4.5666,-4.5698,-4.5691,-4.583,-4.5807,-4.5772,-4.5705,-4.5833,-4.5883,-4.5904,-4.5628,-4.5626,-4.5625,-4.5623,0,0,-4.5193,-4.5267,-4.5293,-4.5326,-4.5387,-4.545,-4.554,-4.5614,-4.5657,-4.5711,-4.5785,-4.5891,-4.5859,-4.59,-4.5897,-4.5959,-4.6086,-4.5916,-4.5917,-4.5943,-4.6237,-4.6261,-4.6285,-4.607,-4.6074,-4.6078,-4.6232,0,-4.5348,-4.5506,-4.5509,-4.5654,-4.5728,-4.5701,-4.5779,-4.5824,-4.5842,-4.5906,-4.5925,-4.5999,-4.5952,-4.5976,-4.6036,-4.6058,-4.6144,-4.6047,-4.6136,-4.6139,-4.612,-4.6312,-4.6338,-4.6482,-4.6252,-4.6255,-4.6258,0,-4.555,-4.5611,-4.5763,-4.5812,-4.5843,-4.5914,-4.598,-4.6044,-4.6094,-4.6102,-4.6149,-4.6136,-4.6227,-4.6159,-4.6283,-4.6216,-4.6253,-4.627,-4.6275,-4.6281,-4.6204,-4.632,-4.6528,-4.6548,-4.629,-4.6287,-4.6285,0,-4.5674,-4.5794,-4.59,-4.5929,-4.599,-4.604,-4.6067,-4.6114,-4.6158,-4.6216,-4.6244,-4.6313,-4.635,-4.6402,-4.6408,-4.6359,-4.6532,-4.6465,-4.6538,-4.6538,-4.6573,-4.657,-4.6786,-4.6603,-4.6603,-4.6602,-4.6602,0,-4.5845,-4.5938,-4.5956,-4.6021,-4.6124,-4.6126,-4.6228,-4.6251,-4.6293,-4.636,-4.6342,-4.6406,-4.6412,-4.6477,-4.6483,-4.6582,-4.66,-4.6607,-4.6607,-4.6607,-4.6606,-4.6629,-4.6617,-4.6608,-4.6607,-4.6606,-4.6605,0,-4.5999,-4.6015,-4.6128,-4.6177,-4.6191,-4.6265,-4.6305,-4.6367,-4.6382,-4.6468,-4.6489,-4.6513,-4.6589,-4.6601,-4.6691,-4.6694,-4.6812,-4.6804,-4.6795,-4.6793,-4.6864,-4.6856,-4.71,-4.7131,-4.693,-4.6932,-4.6934,0,-4.6106,-4.6177,-4.6233,-4.6277,-4.6307,-4.6379,-4.6423,-4.6428,-4.6475,-4.6538,-4.6591,-4.6665,-4.6724,-4.6847,-4.6871,-4.6939,-4.693,-4.7011,-4.694,-4.6937,-4.6927,-4.6921,-4.6927,-4.7023,-4.7025,-4.7027,-4.7029,0,-4.6292,-4.6296,-4.6361,-4.6429,-4.6482,-4.6536,-4.6586,-4.6624,-4.6635,-4.6688,-4.6766,-4.6812,-4.6903,-4.6976,-4.7043,-4.707,-4.7051,-4.7051,-4.7071,-4.707,-4.7061,-4.7063,-4.6829,-4.7045,-4.7043,-4.7042,-4.7041,-4.7041,-4.6423,-4.6484,-4.6533,-4.6605,-4.6644,-4.6691,-4.675,-4.6774,-4.6838,-4.6913,-4.6912,-4.6996,-4.7044,-4.7132,-4.7164,-4.7229,-4.7203,-4.7233,-4.7239,-4.7246,-4.7251,-4.7054,-4.7242,-4.7242,-4.7241,-4.7241,-4.7241,0,-4.6606,-4.6636,-4.6702,-4.6773,-4.683,-4.6809,-4.6863,-4.6911,-4.6986,-4.7032,-4.7091,-4.7179,-4.725,-4.7281,-4.735,-4.7396,-4.7388,-4.7413,-4.7408,-4.7414,-4.7272,-4.7247,-4.7418,-4.7418,-4.7418,-4.7418,-4.7418,-4.7418,-4.6707,-4.6808,-4.6818,-4.6937,-4.6966,-4.7049,-4.7081,-4.7124,-4.7161,-4.726,-4.7319,-4.7339,-4.7378,-4.745,-4.7513,-4.752,-4.7545,-4.7574,-4.7576,-4.7443,-4.7424,-4.7407,-4.7383,-4.758,-4.758,-4.7712,-4.7713,-4.7714]},{"header":{"parameterUnit":"m.s-1","parameterCategory":1,"la1":30.2991,"la2":30.254,"lo1":-89.0895,"lo2":-89.0444,"dy":0.0017,"dx":0.0017,"nx":28,"ny":28,"refTime":"2023-03-20T15:00:00:Z","depth":0,"parameterNumber":3,"parameterNumberName":"V-component_of_WINDS"},"data":[0,0,0,0,0,0,0,0,0,0,0,0,0,0,0,0,0,0,0,0,0,0,0,0,0,0,0,0,0,0,0,0,0,0,0,0,0,0,0,0,0,0,0,0,0,0,0,0,0,0,0,0,0,0,0,0,0,0,0.2598,0.2598,0,0.2549,0.2549,0.2548,0.2481,0.248,0.2479,0.2478,0.2427,0.2427,0.2426,0,0,0,0,0,0,0,0,0,0,0,0,0,0.2633,0.2633,0.2598,0.2598,0.2597,0.2549,0.2549,0.2548,0.2481,0.248,0.2478,0.2477,0.2427,0.2427,0.2426,0,0,0,0,0,0,0,0,0,0,0,0,0,0.2605,0.2633,0.2598,0.2558,0.2554,0.2549,0.2549,0.2548,0.2482,0.248,0.2478,0.2477,0.2427,0.2427,0.2426,0.2457,0,0,0.2425,0.2425,0,0,0,0,0,0,0,0,0.2606,0.2603,0.2564,0.2561,0.2556,0.2519,0.2542,0.2518,0.2482,0.2509,0.2478,0.2476,0.2459,0.2456,0.245,0.2455,0.2453,0.2425,0.2425,0.2424,0.2424,0,0,0,0,0,0,0,0.2608,0.2605,0.2579,0.2564,0.2559,0.2542,0.2536,0.2537,0.2494,0.2506,0.2501,0.2497,0.2456,0.2451,0.2449,0.2452,0.2425,0.2425,0.2424,0.2424,0.248,0.2482,0,0,0,0,0,0,0.2617,0.2607,0.258,0.2577,0.2578,0.2543,0.2536,0.2533,0.2494,0.2486,0.2498,0.2494,0.2453,0.2449,0.2447,0.2481,0.2424,0.2424,0.2424,0.2479,0.2481,0.2483,0,0,0,0,0,0,0.2618,0.2615,0.2582,0.2591,0.2586,0.2544,0.2541,0.2533,0.2527,0.2488,0.248,0.2501,0.2451,0.2447,0.2455,0.2478,0.2424,0.2423,0.2477,0.2479,0.2482,0.2549,0,0,0,0,0,0,0.2619,0.2616,0.2627,0.2592,0.2585,0.2592,0.2542,0.2533,0.2527,0.2521,0.2488,0.2481,0.245,0.2457,0.2455,0.2477,0.2423,0.2474,0.2478,0.2481,0.2545,0.2554,0.2562,0,0,0,0,0,0.262,0.2648,0.2628,0.2625,0.2599,0.2594,0.259,0.2554,0.2529,0.254,0.2515,0.2482,0.2476,0.2458,0.2456,0.2477,0.2473,0.2477,0.2481,0.2541,0.2552,0.2562,0,0,0,0,0,0,0.2686,0.2642,0.262,0.2637,0.2619,0.2582,0.2595,0.2566,0.2556,0.255,0.2506,0.2499,0.2513,0.2496,0.2476,0.2506,0.2469,0.2473,0.2516,0.2526,0.2535,0.2538,0.2423,0,0,0,0,0,0.2703,0.2702,0.2664,0.2682,0.2675,0.2637,0.2633,0.2607,0.2587,0.2579,0.2554,0.2537,0.2531,0.2528,0.252,0.2542,0.2534,0.2556,0.2565,0.2572,0.2576,0.2587,0.2596,0.2496,0.2496,0.2496,0,0,0.2737,0.2713,0.2715,0.2695,0.2679,0.2679,0.2631,0.2633,0.2633,0.258,0.2586,0.2567,0.2544,0.256,0.2565,0.2546,0.2602,0.2577,0.2583,0.2583,0.2592,0.2601,0.261,0.2498,0.2498,0.2498,0,0,0.2799,0.2781,0.2794,0.2779,0.2755,0.273,0.2733,0.27,0.2686,0.2692,0.2652,0.2651,0.2642,0.2627,0.2618,0.2676,0.2646,0.2675,0.2719,0.273,0.2738,0.2745,0.2766,0.2774,0.2679,0.2679,0.2679,0,0.2844,0.2844,0.2805,0.281,0.2803,0.2755,0.2768,0.2755,0.273,0.2726,0.2705,0.2693,0.2674,0.2685,0.27,0.2694,0.2697,0.2678,0.274,0.2747,0.2752,0.2772,0.278,0.2683,0.2682,0.2682,0.2682,0,0.2901,0.2901,0.2915,0.2892,0.2886,0.2896,0.2858,0.2857,0.2832,0.2809,0.2815,0.2791,0.2778,0.2779,0.2754,0.2787,0.2776,0.2749,0.2711,0.2766,0.2784,0.2791,0.2688,0.2687,0.2686,0.2685,0,0,0.3003,0.2959,0.2965,0.2954,0.2924,0.2924,0.2931,0.2919,0.2918,0.2903,0.2908,0.2902,0.2876,0.2867,0.284,0.285,0.2897,0.282,0.2819,0.2836,0.2933,0.2954,0.2963,0.2877,0.2878,0.2879,0.2935,0,0.3059,0.3069,0.3035,0.3054,0.3054,0.3009,0.3015,0.2998,0.2977,0.2974,0.295,0.2947,0.2913,0.2907,0.2915,0.289,0.2916,0.2886,0.2882,0.2882,0.2889,0.2972,0.2994,0.3048,0.2942,0.2943,0.2944,0,0.3126,0.3115,0.3134,0.3104,0.3102,0.3109,0.3095,0.3093,0.3072,0.3056,0.3046,0.3015,0.302,0.2985,0.2992,0.2971,0.2968,0.2956,0.2957,0.2955,0.2916,0.2973,0.3064,0.3073,0.2954,0.2953,0.2952,0,0.3199,0.3188,0.3198,0.3191,0.3156,0.3161,0.3147,0.3125,0.312,0.3108,0.3104,0.3093,0.3087,0.3079,0.3045,0.3023,0.3056,0.3018,0.3043,0.3044,0.3052,0.3052,0.3144,0.305,0.305,0.305,0.305,0,0.3266,0.3279,0.3231,0.3237,0.3251,0.3212,0.3227,0.3208,0.3189,0.319,0.3151,0.3153,0.3109,0.3107,0.3081,0.3091,0.3088,0.3076,0.3069,0.3079,0.3081,0.3076,0.3071,0.3052,0.3051,0.3051,0.3051,0,0.3349,0.3317,0.3325,0.3292,0.3283,0.3295,0.3266,0.3271,0.3248,0.3251,0.3249,0.3212,0.3208,0.3174,0.3162,0.3144,0.3164,0.3149,0.3171,0.3166,0.3193,0.3191,0.3286,0.3296,0.3196,0.3197,0.3198,0,0.3394,0.3403,0.3371,0.3369,0.3357,0.3355,0.335,0.3312,0.3308,0.3286,0.3293,0.3285,0.3277,0.3272,0.3244,0.3235,0.322,0.3254,0.3218,0.3229,0.3221,0.322,0.3221,0.3261,0.3263,0.3264,0.3265,0,0.3476,0.346,0.3454,0.3443,0.3438,0.3427,0.3414,0.3415,0.3373,0.3371,0.3366,0.336,0.3348,0.3341,0.3327,0.3312,0.3281,0.3276,0.3281,0.3292,0.3304,0.3298,0.3191,0.3274,0.3273,0.3272,0.3272,0.3271,0.3541,0.3548,0.3526,0.3521,0.3507,0.3496,0.3499,0.3476,0.3471,0.3459,0.3437,0.3435,0.3415,0.3393,0.3381,0.3379,0.3361,0.3369,0.337,0.3373,0.3379,0.3305,0.3376,0.3376,0.3375,0.3375,0.3375,0,0.3622,0.3606,0.3602,0.3585,0.3581,0.3553,0.3537,0.3536,0.3535,0.3519,0.3512,0.3506,0.35,0.3472,0.3462,0.3466,0.3452,0.3465,0.3464,0.3461,0.3395,0.3391,0.3476,0.3476,0.3476,0.3476,0.3476,0.3476,0.3663,0.3673,0.3654,0.3657,0.3641,0.3639,0.3633,0.3622,0.3609,0.3605,0.3599,0.3581,0.356,0.3549,0.3541,0.3533,0.3532,0.3549,0.3537,0.3475,0.3466,0.3456,0.3453,0.3549,0.3549,0.3603,0.3603,0.3604]}]]